Location: Newark
(22.3060°N, 114.2134°E)
Time: 20:00:14
(UTC+00:00)

Explorer 11/Cluster Stage 4 - Pass Details

Date: 31 July 2021
Orbit: 467 x 1256 km, 28.8° (Epoch: 27 September)

Event Time Altitude Azimuth Distance (km) Brightness Sun altitude
Rises 23:23:15 0° 232° (SW) 3,764 9.5 18.8°
Reaches altitude 10° 23:25:53 10° 227° (SW) 2,913 9.1 19.4°
Maximum altitude 23:33:02 53° 152° (SSE) 1,433 8.4 21.0°
Drops below altitude 10° 23:40:59 10° 78° (ENE) 3,225 11.9 22.8°
Sets 23:44:01 0° 74° (ENE) 4,192 11.7 23.5°
